Galena, AK

2:35 PM AKDT on August 30, 2016 (GMT -0800)
Pitka

Weather History for PAGA - January, 2013

Change the Weather History Date:

Friday, January 25, 2013

  Actual Average Record
Temperature  
Mean Temperature -20 °F -  
Max Temperature -13 °F -1 °F 40 °F (1991)
Min Temperature -27 °F -16 °F -60 °F (1989)
Degree Days  
Heating Degree Days 85    
Moisture  
Dew Point -28 °F    
Average Humidity 70    
Maximum Humidity 78    
Minimum Humidity 58    
Precipitation  
Precipitation 0.00 in - - ()
Sea Level Pressure  
Sea Level Pressure 30.16 in    
Wind  
Wind Speed 3 mph (WNW)    
Max Wind Speed 6 mph    
Max Gust Speed -    
Visibility 10 miles    
Events      
Averages and records for this station are not official NWS values.
T = Trace of Precipitation, MM = Missing Value Source: NWS Daily Summary

Daily Weather History Graph

Daily Weather History Graph

Search for Another Location

Airport or City:

Trip Planner

Search our weather history database for the weather conditions in past years. The results will help you decide how hot, cold, wet, or windy it might be!

Date:

Astronomy

Jan. 25, 2013 Rise Set
Actual Time 10:32 AM AKST 4:48 PM AKST
Civil Twilight 9:30 AM AKST 5:51 PM AKST
Nautical Twilight 8:27 AM AKST 6:53 PM AKST
Astronomical Twilight 7:30 AM AKST 7:51 PM AKST
Moon 3:59 PM AKST (1/25) 9:20 AM AKST (1/25)
Length of Visible Light 8h 20m
Length of Day
6h 15m
Waxing Gibbous, 98% of the Moon is Illuminated
Jan 25
Waxing Gibbous
Jan 26
Full
Feb 3
Last Quarter
Feb 9
New
Feb 17
First Quarter

Hourly Weather History & Observations

Time (AKST) Temp. Windchill Dew Point Humidity Pressure Visibility Wind Dir Wind Speed Gust Speed Precip Events Conditions
12:58 AM -13.0 °F -25.1 °F -23.1 °F 61% 30.14 in 10.0 mi NW 4.6 mph - N/A   Clear
1:58 AM -13.0 °F -22.7 °F -24.0 °F 58% 30.14 in 10.0 mi NW 3.5 mph - N/A   Clear
2:58 AM -15.0 °F -27.4 °F -24.0 °F 64% 30.14 in 10.0 mi NNW 4.6 mph - N/A   Clear
3:58 AM -17.0 °F -27.2 °F -27.0 °F 60% 30.14 in 10.0 mi WSW 3.5 mph - N/A   Clear
4:58 AM -22.0 °F -35.6 °F -29.9 °F 67% 30.14 in 10.0 mi West 4.6 mph - N/A   Clear
5:58 AM -20.9 °F -34.3 °F -27.0 °F 73% 30.14 in 10.0 mi West 4.6 mph - N/A   Clear
6:58 AM -22.0 °F -33.0 °F -27.9 °F 74% 30.14 in 10.0 mi West 3.5 mph - N/A   Clear
7:58 AM -23.1 °F -34.2 °F -29.0 °F 74% 30.13 in 10.0 mi West 3.5 mph - N/A   Clear
8:58 AM -26.0 °F -37.5 °F -31.0 °F 77% 30.14 in 10.0 mi West 3.5 mph - N/A   Clear
9:58 AM -27.9 °F - -35.0 °F 69% 30.14 in 10.0 mi Calm Calm - N/A   Clear
10:58 AM -27.0 °F - -34.1 °F 69% 30.14 in 10.0 mi Calm Calm - N/A   Clear
11:58 AM -22.0 °F - -29.0 °F 70% 30.15 in 10.0 mi Calm Calm - N/A   Clear
12:58 PM -23.1 °F - -29.9 °F 70% 30.16 in 10.0 mi Calm Calm - N/A   Clear
1:58 PM -18.9 °F - -27.0 °F 66% 30.16 in 10.0 mi Calm Calm - N/A   Clear
2:58 PM -17.0 °F - -24.0 °F 70% 30.16 in 10.0 mi Calm Calm - N/A   Clear
3:58 PM -17.0 °F - -25.1 °F 67% 30.16 in 10.0 mi Calm Calm - N/A   Clear
4:58 PM -18.9 °F -32.0 °F -26.0 °F 70% 30.17 in 10.0 mi WNW 4.6 mph - N/A   Clear
5:58 PM -18.9 °F - -24.0 °F 78% 30.17 in 10.0 mi Calm Calm - N/A   Clear
6:58 PM -20.9 °F -36.4 °F -27.0 °F 73% 30.17 in 10.0 mi West 5.8 mph - N/A   Clear
7:58 PM -26.0 °F -40.2 °F -31.0 °F 77% 30.18 in 5.0 mi West 4.6 mph - N/A   Haze
8:58 PM -24.0 °F -37.9 °F -29.0 °F 77% 30.18 in 10.0 mi West 4.6 mph - N/A   Clear
9:58 PM -26.0 °F -37.5 °F -32.1 °F 73% 30.18 in 10.0 mi West 3.5 mph - N/A   Clear
10:58 PM -25.1 °F -39.1 °F -31.0 °F 74% 30.19 in 10.0 mi West 4.6 mph - N/A   Clear
11:58 PM -25.1 °F - -29.9 °F 78% 30.19 in 10.0 mi Calm Calm - N/A   Clear